GW4136 Weather Reports


Display with metric or nautical units.
time (UTC)temp
F
wind
direction
speed
MPH
gust
MPH
rain 1hr
in
rain 24hr
in
rain mn
in
humidity
%
barometer
mb
20260505165602 55 172 1.0 5.0 0.00 0.00 0.00 70 1015.4
20260505165104 55 168 1.0 3.0 0.00 0.00 0.00 70 1015.3
20260505164104 55 239 1.0 5.0 0.00 0.00 0.00 69 1015.3
20260505163604 55 281 1.0 3.0 0.00 0.00 0.00 68 1015.3
20260505162605 56 201 1.0 6.0 0.00 0.00 0.00 69 1015.2
20260505162104 57 193 0.0 2.0 0.00 0.00 0.00 69 1015.2
20260505161104 57 214 1.0 3.0 0.00 0.00 0.00 65 1015.2
20260505160605 57 234 0.0 5.0 0.00 0.00 0.00 65 1015.2
20260505160105 57 169 1.0 6.0 0.00 0.00 0.00 66 1015.3
20260505153103 56 218 1.0 3.0 0.00 0.00 0.00 67 1015.4
20260505152604 56 283 1.0 5.0 0.00 0.00 0.00 66 1015.4
20260505152105 56 264 2.0 6.0 0.00 0.00 0.00 66 1015.4
20260505151602 56 183 1.0 3.0 0.00 0.00 0.00 68 1015.5
20260505151105 56 210 0.0 3.0 0.00 0.00 0.00 68 1015.5
20260505150604 56 194 0.0 3.0 0.00 0.00 0.00 67 1015.5
20260505150105 56 247 1.0 5.0 0.00 0.00 0.00 66 1015.5
20260505140105 61 264 2.0 3.0 0.00 0.00 0.00 55 1015.6
20260505130105 57 183 1.0 9.0 0.00 0.00 0.00 66 1015.8
20260505124605 59 195 2.0 6.0 0.00 0.00 0.00 61 1015.6
20260505124105 59 177 1.0 5.0 0.00 0.00 0.00 61 1015.6
20260505123605 59 169 1.0 5.0 0.00 0.00 0.00 61 1015.5
20260505123105 58 201 1.0 6.0 0.00 0.00 0.00 60 1015.6
20260505122605 59 213 1.0 5.0 0.00 0.00 0.00 59 1015.6
20260505122105 58 189 1.0 7.0 0.00 0.00 0.00 61 1015.7
20260505121604 58 259 1.0 3.0 0.00 0.00 0.00 62 1015.8
20260505121105 57 219 1.0 6.0 0.00 0.00 0.00 62 1015.9
20260505120605 57 228 1.0 5.0 0.00 0.00 0.00 64 1016.0
20260505120106 56 171 1.0 5.0 0.00 0.00 0.00 65 1015.9
20260505115605 56 250 3.0 6.0 0.00 0.00 0.00 64 1015.9
20260505115105 56 225 1.0 6.0 0.00 0.00 0.00 66 1015.9
20260505114605 55 194 1.0 7.0 0.00 0.00 0.00 65 1016.0
20260505114105 56 235 1.0 8.0 0.00 0.00 0.00 65 1016.0
20260505113108 56 201 1.0 3.0 0.00 0.00 0.00 65 1015.8
20260505112606 57 206 2.0 12.0 0.00 0.00 0.00 63 1015.9
20260505112106 58 181 1.0 7.0 0.00 0.00 0.00 63 1016.0
20260505111105 58 201 2.0 5.0 0.00 0.00 0.00 58 1015.9
20260505110605 58 233 0.0 3.0 0.00 0.00 0.00 60 1015.9
20260505110105 58 235 1.0 5.0 0.00 0.00 0.00 58 1016.0
20260505102105 56 186 0.0 5.0 0.00 0.00 0.00 64 1016.3
20260505101605 56 179 1.0 3.0 0.00 0.00 0.00 64 1016.3
20260505100605 54 198 1.0 3.0 0.00 0.00 0.00 66 1016.3
20260505100105 54 215 0.0 3.0 0.00 0.00 0.00 65 1016.4
20260505095605 55 211 1.0 7.0 0.00 0.00 0.00 65 1016.5
20260505095105 56 265 2.0 6.0 0.00 0.00 0.00 64 1016.5
20260505094105 57 248 1.0 3.0 0.00 0.00 0.00 65 1016.4
20260505093104 57 265 1.0 7.0 0.00 0.00 0.00 65 1016.4
20260505092605 56 237 1.0 3.0 0.00 0.00 0.00 67 1016.3
20260505092105 56 245 2.0 7.0 0.00 0.00 0.00 66 1016.3
20260505091605 56 245 1.0 5.0 0.00 0.00 0.00 68 1016.3
20260505091105 56 189 1.0 9.0 0.00 0.00 0.00 68 1016.4
20260505090605 55 268 1.0 5.0 0.00 0.00 0.00 69 1016.3
20260505085605 54 279 1.0 5.0 0.00 0.00 0.00 70 1016.3
20260505085105 54 256 2.0 9.0 0.00 0.00 0.00 70 1016.4
20260505084605 54 270 1.0 7.0 0.00 0.00 0.00 71 1016.4
20260505083606 54 193 1.0 7.0 0.00 0.00 0.00 74 1016.4
20260505083105 54 239 3.0 8.0 0.00 0.00 0.00 73 1016.5
20260505082605 53 239 2.0 7.0 0.00 0.00 0.00 73 1016.4
20260505082106 54 257 1.0 5.0 0.00 0.00 0.00 74 1016.5
20260505081606 54 234 2.0 6.0 0.00 0.00 0.00 74 1016.6
20260505081105 54 232 0.0 5.0 0.00 0.00 0.00 75 1016.7
20260505080606 53 226 1.0 6.0 0.00 0.00 0.00 74 1016.7
20260505080105 53 268 1.0 5.0 0.00 0.00 0.00 76 1016.7
20260505075605 52 168 1.0 6.0 0.00 0.00 0.00 76 1016.6
20260505075105 52 267 1.0 3.0 0.00 0.00 0.00 77 1016.7
20260505074605 52 147 0.0 2.0 0.00 0.00 0.00 79 1016.6
20260505073605 50 207 1.0 3.0 0.00 0.00 0.00 82 1016.6
20260505073105 50 208 1.0 3.0 0.00 0.00 0.00 83 1016.6
20260505071605 48 244 0.0 3.0 0.00 0.00 0.00 87 1016.7
20260505071105 48 219 0.0 3.0 0.00 0.00 0.00 87 1016.7
20260505070605 48 237 0.0 3.0 0.00 0.00 0.00 88 1016.7
20260505070106 47 209 0.0 3.0 0.00 0.00 0.00 88 1016.8
20260505065605 47 221 0.0 2.0 0.00 0.00 0.00 88 1016.8
20260505065106 47 171 0.0 1.0 0.00 0.00 0.00 89 1016.8
20260505064605 47 189 0.0 1.0 0.00 0.00 0.00 89 1016.8
20260505063605 47 206 0.0 1.0 0.00 0.00 0.00 89 1016.9
20260505063105 47 204 0.0 2.0 0.00 0.00 0.00 89 1016.8
20260505062605 47 183 0.0 3.0 0.00 0.00 0.00 90 1016.8
20260505062106 47 159 0.0 3.0 0.00 0.00 0.00 90 1016.8
20260505061605 46 115 0.0 2.0 0.00 0.00 0.00 90 1016.7
20260505061105 46 150 0.0 1.0 0.00 0.00 0.00 90 1016.7
20260505060605 46 199 0.0 1.0 0.00 0.00 0.00 90 1016.6
20260505060106 46 160 0.0 1.0 0.00 0.00 0.00 90 1016.5
20260505055605 46 193 0.0 1.0 0.00 0.00 0.00 91 1016.6
20260505055105 46 162 0.0 0.0 0.00 0.00 0.00 91 1016.5
20260505054605 46 196 0.0 1.0 0.00 0.00 0.00 91 1016.6
20260505054105 46 107 0.0 0.0 0.00 0.00 0.00 91 1016.5
20260505053605 46 165 0.0 0.0 0.00 0.00 0.00 92 1016.5
20260505053105 46 199 0.0 1.0 0.00 0.00 0.00 92 1016.5
20260505052606 46 195 0.0 2.0 0.00 0.00 0.00 92 1016.4
20260505052106 46 194 0.0 1.0 0.00 0.00 0.00 93 1016.5
20260505051606 45 203 0.0 1.0 0.00 0.00 0.00 93 1016.4
20260505051105 45 212 0.0 0.0 0.00 0.00 0.00 93 1016.4
20260505050605 45 212 0.0 1.0 0.00 0.00 0.00 93 1016.4
20260505050106 45 212 0.0 0.0 0.00 0.00 0.00 93 1016.4
20260505041606 45 253 0.0 0.0 0.00 0.00 0.00 93 1016.5
20260505041105 44 253 0.0 0.0 0.00 0.00 0.00 93 1016.5
20260505040606 44 253 0.0 0.0 0.00 0.00 0.00 93 1016.5
20260505035605 44 253 0.0 0.0 0.00 0.00 0.00 93 1016.4
20260505035106 44 253 0.0 0.0 0.00 0.00 0.00 92 1016.3
20260505034106 44 253 0.0 0.0 0.00 0.00 0.00 92 1016.3
20260505033605 44 253 0.0 0.0 0.00 0.00 0.00 91 1016.3
20260505033106 44 253 0.0 0.0 0.00 0.00 0.00 91 1016.4
20260505032605 44 253 0.0 0.0 0.00 0.00 0.00 91 1016.5
20260505032106 44 253 0.0 0.0 0.00 0.00 0.00 91 1016.5
20260505031606 44 253 0.0 0.0 0.00 0.00 0.00 90 1016.5
20260505031105 44 253 0.0 0.0 0.00 0.00 0.00 90 1016.6
20260505025606 44 271 0.0 0.0 0.00 0.00 0.00 89 1016.6
20260505025106 44 271 0.0 0.0 0.00 0.00 0.00 89 1016.6
20260505024606 45 271 0.0 0.0 0.00 0.00 0.00 89 1016.6
20260505024106 45 271 0.0 0.0 0.00 0.00 0.00 89 1016.6
20260505023606 45 271 0.0 0.0 0.00 0.00 0.00 89 1016.7
20260505023107 45 271 0.0 0.0 0.00 0.00 0.00 88 1016.7
20260505022606 46 200 0.0 0.0 0.00 0.00 0.00 89 1016.7
20260505022106 46 194 0.0 3.0 0.00 0.00 0.00 89 1016.7
20260505021606 46 203 0.0 1.0 0.00 0.00 0.00 89 1016.8
20260505020107 46 173 0.0 0.0 0.00 0.00 0.00 90 1016.9
20260505015606 46 150 0.0 0.0 0.00 0.00 0.00 90 1016.8
20260505015106 46 232 0.0 1.0 0.00 0.00 0.00 91 1016.8
20260505014105 46 145 0.0 2.0 0.00 0.00 0.00 91 1016.8
20260505013606 46 170 0.0 1.0 0.00 0.00 0.00 92 1016.8
20260505013106 46 307 0.0 1.0 0.00 0.00 0.00 92 1016.9
20260505012606 46 154 0.0 0.0 0.00 0.00 0.00 92 1016.9
20260505012106 46 224 0.0 0.0 0.00 0.00 0.00 91 1017.0
20260505011606 46 224 0.0 0.0 0.00 0.00 0.00 91 1017.1
20260505011106 46 224 0.0 0.0 0.00 0.00 0.00 91 1017.0
20260505010606 47 224 0.0 0.0 0.00 0.00 0.00 91 1017.1
20260505010107 47 224 0.0 0.0 0.00 0.00 0.00 91 1017.1
20260505005606 47 224 0.0 0.0 0.00 0.00 0.00 91 1017.0
20260505005106 47 224 0.0 0.0 0.00 0.00 0.00 91 1017.0
20260505004607 47 224 0.0 0.0 0.00 0.00 0.00 90 1017.0
20260505004106 47 224 0.0 0.0 0.00 0.00 0.00 90 1017.1
20260505003606 47 224 0.0 0.0 0.00 0.00 0.00 90 1017.1
20260505003105 48 224 0.0 0.0 0.00 0.00 0.00 90 1017.1
20260505002606 48 224 0.0 0.0 0.00 0.00 0.00 90 1017.2
20260505001106 49 224 0.0 0.0 0.00 0.00 0.00 90 1017.3
20260505000606 49 224 0.0 1.0 0.00 0.00 0.00 91 1017.2
20260505000106 49 240 0.0 3.0 0.00 0.00 0.00 91 1017.3
20260504235106 49 257 0.0 1.0 0.00 0.00 0.00 92 1017.5
20260504234106 49 255 0.0 0.0 0.00 0.00 0.00 92 1017.5
20260504233606 48 255 0.0 0.0 0.00 0.00 0.00 92 1017.5
20260504233106 48 255 0.0 0.0 0.00 0.00 0.00 92 1017.5
20260504232606 49 255 0.0 0.0 0.00 0.00 0.00 92 1017.5
20260504232106 49 255 0.0 0.0 0.00 0.00 0.00 92 1017.5
20260504231606 49 255 0.0 1.0 0.00 0.00 0.00 92 1017.5
20260504231106 49 255 0.0 0.0 0.00 0.00 0.00 92 1017.6
20260504230106 49 195 0.0 0.0 0.00 0.00 0.00 92 1017.6
20260504225606 49 195 0.0 0.0 0.00 0.00 0.00 92 1017.6
20260504225105 49 195 0.0 0.0 0.00 0.00 0.00 92 1017.6
20260504224605 49 177 0.0 1.0 0.00 0.00 0.00 92 1017.6
20260504222604 48 281 0.0 0.0 0.00 0.00 0.00 91 1017.7
20260504222104 48 281 0.0 0.0 0.00 0.00 0.00 91 1017.7
20260504221605 48 281 0.0 0.0 0.00 0.00 0.00 91 1017.7
20260504220604 47 281 0.0 0.0 0.00 0.00 0.00 90 1017.8
20260504220105 47 281 0.0 0.0 0.00 0.00 0.00 90 1017.8
20260504215605 47 281 0.0 0.0 0.00 0.00 0.00 89 1017.9
20260504215105 47 281 0.0 0.0 0.00 0.00 0.00 89 1017.8
20260504214605 48 281 0.0 0.0 0.00 0.00 0.00 89 1017.8
20260504214105 48 281 0.0 0.0 0.00 0.00 0.00 88 1017.8
20260504213605 48 281 0.0 0.0 0.00 0.00 0.00 88 1017.8
20260504213105 48 281 0.0 0.0 0.00 0.00 0.00 88 1017.8
20260504212604 49 281 0.0 0.0 0.00 0.00 0.00 88 1017.7
20260504212105 49 281 0.0 0.0 0.00 0.00 0.00 87 1017.7
20260504210105 51 281 0.0 0.0 0.00 0.00 0.00 86 1017.6
20260504205604 51 281 0.0 0.0 0.00 0.00 0.00 85 1017.6
20260504205104 51 281 0.0 0.0 0.00 0.00 0.00 85 1017.5
20260504204604 52 281 0.0 0.0 0.00 0.00 0.00 85 1017.5
20260504203605 52 281 0.0 0.0 0.00 0.00 0.00 84 1017.5
20260504203104 53 281 0.0 0.0 0.00 0.00 0.00 84 1017.6
20260504202605 53 275 0.0 0.0 0.00 0.00 0.00 84 1017.7
20260504202105 53 272 0.0 0.0 0.00 0.00 0.00 83 1017.6
20260504201605 53 272 0.0 1.0 0.00 0.00 0.00 83 1017.5
20260504200604 54 265 0.0 1.0 0.00 0.00 0.00 83 1017.4
20260504195604 54 265 0.0 1.0 0.00 0.00 0.00 82 1017.4
20260504195104 54 245 1.0 3.0 0.00 0.00 0.00 82 1017.4
20260504194604 54 267 0.0 3.0 0.00 0.00 0.00 82 1017.4
20260504193105 54 238 0.0 2.0 0.00 0.00 0.00 82 1017.2
20260504192604 55 285 0.0 2.0 0.00 0.00 0.00 82 1017.2
20260504192104 55 249 0.0 1.0 0.00 0.00 0.00 82 1017.2
20260504191604 55 247 0.0 1.0 0.00 0.00 0.00 82 1017.1
20260504191104 55 323 0.0 1.0 0.00 0.00 0.00 81 1017.0
20260504190604 55 264 0.0 1.0 0.00 0.00 0.00 81 1017.1
20260504190105 55 254 0.0 2.0 0.00 0.00 0.00 81 1017.0
20260504185604 55 238 0.0 1.0 0.00 0.00 0.00 81 1017.0
20260504185104 55 266 0.0 3.0 0.00 0.00 0.00 81 1016.9
20260504184604 55 257 0.0 2.0 0.00 0.00 0.00 81 1016.9
20260504184104 55 251 0.0 2.0 0.00 0.00 0.00 80 1016.9
20260504183605 56 237 0.0 0.0 0.00 0.00 0.00 80 1016.8
20260504183104 56 228 0.0 1.0 0.00 0.00 0.00 80 1016.9
20260504182604 56 229 0.0 1.0 0.00 0.00 0.00 80 1016.8
20260504182104 56 280 0.0 1.0 0.00 0.00 0.00 79 1016.7
20260504181604 56 242 0.0 1.0 0.00 0.00 0.00 79 1016.7
20260504181104 56 244 1.0 3.0 0.00 0.00 0.00 79 1016.6
20260504180604 57 259 1.0 3.0 0.00 0.00 0.00 79 1016.7
20260504175605 56 277 0.0 3.0 0.00 0.00 0.00 79 1016.8
20260504175104 56 279 0.0 3.0 0.00 0.00 0.00 79 1016.7
20260504174604 56 244 0.0 2.0 0.00 0.00 0.00 79 1016.7
20260504174104 56 231 0.0 2.0 0.00 0.00 0.00 79 1016.7
20260504173604 56 240 1.0 3.0 0.00 0.00 0.00 79 1016.7
20260504173104 56 243 0.0 3.0 0.00 0.00 0.00 79 1016.6
20260504172604 56 241 0.0 3.0 0.00 0.00 0.00 78 1016.7
20260504171604 57 254 0.0 1.0 0.00 0.00 0.00 78 1016.8